| time (UTC) | temp C | wind direction | speed KPH | gust KPH | rain 1hr cm | rain 24hr cm | rain mn cm | humidity % | barometer mb |
| 20260902014938 | 17 | 237 | 4.8 | 12.9 | 0.00 | 0.00 | 0.00 | 77 | 1016.3 |
| 20260902014452 | 17 | 252 | 6.4 | 16.1 | 0.00 | 0.00 | 0.00 | 76 | 1016.3 |
| 20260902013936 | 17 | 227 | 9.7 | 17.7 | 0.00 | 0.00 | 0.00 | 75 | 1016.3 |
| 20260902013440 | 17 | 222 | 8.0 | 19.3 | 0.00 | 0.00 | 0.00 | 75 | 1016.3 |
| 20260902012959 | 18 | 229 | 12.9 | 22.5 | 0.00 | 0.00 | 0.00 | 74 | 1016.3 |
| 20260902012422 | 18 | 221 | 9.7 | 24.1 | 0.00 | 0.00 | 0.00 | 74 | 1016.2 |
| 20260902011927 | 18 | 217 | 11.3 | 24.1 | 0.00 | 0.00 | 0.00 | 74 | 1016.1 |
| 20260902011433 | 18 | 211 | 12.9 | 22.5 | 0.00 | 0.00 | 0.00 | 73 | 1016.1 |
| 20260902010940 | 18 | 228 | 11.3 | 20.9 | 0.00 | 0.00 | 0.00 | 74 | 1016.1 |
| 20260902010435 | 18 | 221 | 14.5 | 20.9 | 0.00 | 0.00 | 0.00 | 74 | 1016.1 |
| 20260902005920 | 18 | 268 | 8.0 | 29.0 | 0.00 | 0.00 | 0.00 | 74 | 1016.1 |
| 20260902005420 | 18 | 212 | 14.5 | 29.0 | 0.00 | 0.00 | 0.00 | 73 | 1016.1 |
| 20260902004925 | 18 | 258 | 12.9 | 24.1 | 0.00 | 0.00 | 0.00 | 73 | 1016.2 |
| 20260902004428 | 18 | 236 | 9.7 | 20.9 | 0.00 | 0.00 | 0.00 | 73 | 1016.1 |
| 20260902003934 | 18 | 181 | 9.7 | 24.1 | 0.00 | 0.00 | 0.00 | 73 | 1016.0 |
| 20260902003435 | 18 | 205 | 9.7 | 24.1 | 0.00 | 0.00 | 0.00 | 73 | 1016.0 |
| 20260902002918 | 18 | 240 | 11.3 | 27.4 | 0.00 | 0.00 | 0.00 | 73 | 1016.0 |
| 20260902002442 | 18 | 198 | 11.3 | 27.4 | 0.00 | 0.00 | 0.00 | 73 | 1016.0 |
| 20260902001925 | 18 | 215 | 12.9 | 22.5 | 0.00 | 0.00 | 0.00 | 72 | 1016.0 |
| 20260902001455 | 18 | 221 | 14.5 | 22.5 | 0.00 | 0.00 | 0.00 | 71 | 1016.1 |
| 20260902000946 | 18 | 249 | 12.9 | 24.1 | 0.00 | 0.00 | 0.00 | 72 | 1016.1 |
| 20260902000429 | 18 | 241 | 14.5 | 25.7 | 0.00 | 0.00 | 0.00 | 72 | 1016.1 |
| 20260901235931 | 18 | 217 | 11.3 | 27.4 | 0.00 | 0.00 | 0.00 | 72 | 1016.1 |
| 20260901235438 | 18 | 225 | 14.5 | 29.0 | 0.00 | 0.00 | 0.00 | 72 | 1016.1 |
| 20260901234936 | 18 | 251 | 14.5 | 29.0 | 0.00 | 0.00 | 0.00 | 72 | 1016.2 |
| 20260901234419 | 18 | 202 | 9.7 | 25.7 | 0.00 | 0.00 | 0.00 | 73 | 1016.1 |
| 20260901233924 | 18 | 215 | 11.3 | 24.1 | 0.00 | 0.00 | 0.00 | 73 | 1016.2 |
| 20260901233429 | 18 | 225 | 14.5 | 24.1 | 0.00 | 0.00 | 0.00 | 73 | 1016.2 |
| 20260901232934 | 18 | 246 | 8.0 | 29.0 | 0.00 | 0.00 | 0.00 | 73 | 1016.2 |
| 20260901232420 | 19 | 226 | 12.9 | 22.5 | 0.00 | 0.00 | 0.00 | 73 | 1016.3 |
| 20260901231923 | 18 | 268 | 8.0 | 24.1 | 0.00 | 0.00 | 0.00 | 73 | 1016.3 |
| 20260901231423 | 18 | 219 | 12.9 | 24.1 | 0.00 | 0.00 | 0.00 | 73 | 1016.4 |
| 20260901230931 | 19 | 224 | 12.9 | 24.1 | 0.00 | 0.00 | 0.00 | 73 | 1016.4 |
| 20260901230434 | 18 | 223 | 12.9 | 27.4 | 0.00 | 0.00 | 0.00 | 73 | 1016.4 |
| 20260901225918 | 18 | 251 | 16.1 | 27.4 | 0.00 | 0.00 | 0.00 | 72 | 1016.5 |
| 20260901225444 | 18 | 209 | 16.1 | 29.0 | 0.00 | 0.00 | 0.00 | 72 | 1016.5 |
| 20260901224955 | 19 | 240 | 11.3 | 29.0 | 0.00 | 0.00 | 0.00 | 72 | 1016.6 |
| 20260901224419 | 19 | 334 | 9.7 | 20.9 | 0.00 | 0.00 | 0.00 | 71 | 1016.5 |
| 20260901223921 | 20 | 209 | 11.3 | 20.9 | 0.00 | 0.00 | 0.00 | 71 | 1016.6 |
| 20260901223424 | 20 | 227 | 9.7 | 22.5 | 0.00 | 0.00 | 0.00 | 72 | 1016.6 |
| 20260901222927 | 19 | 275 | 12.9 | 25.7 | 0.00 | 0.00 | 0.00 | 72 | 1016.6 |
| 20260901222433 | 19 | 237 | 9.7 | 25.7 | 0.00 | 0.00 | 0.00 | 72 | 1016.5 |
| 20260901221936 | 19 | 283 | 12.9 | 27.4 | 0.00 | 0.00 | 0.00 | 72 | 1016.6 |
| 20260901221420 | 19 | 220 | 16.1 | 27.4 | 0.00 | 0.00 | 0.00 | 72 | 1016.6 |
| 20260901220926 | 19 | 227 | 9.7 | 25.7 | 0.00 | 0.00 | 0.00 | 72 | 1016.6 |
| 20260901220454 | 19 | 214 | 17.7 | 25.7 | 0.00 | 0.00 | 0.00 | 72 | 1016.6 |
| 20260901215937 | 19 | 268 | 11.3 | 22.5 | 0.00 | 0.00 | 0.00 | 72 | 1016.6 |
| 20260901215441 | 19 | 294 | 14.5 | 22.5 | 0.00 | 0.00 | 0.00 | 72 | 1016.5 |
| 20260901214952 | 20 | 295 | 14.5 | 25.7 | 0.00 | 0.00 | 0.00 | 71 | 1016.5 |
| 20260901214437 | 20 | 242 | 11.3 | 25.7 | 0.00 | 0.00 | 0.00 | 70 | 1016.5 |
| 20260901213940 | 20 | 271 | 9.7 | 22.5 | 0.00 | 0.00 | 0.00 | 70 | 1016.5 |
| 20260901213438 | 20 | 231 | 12.9 | 22.5 | 0.00 | 0.00 | 0.00 | 70 | 1016.5 |
| 20260901212951 | 20 | 263 | 11.3 | 22.5 | 0.00 | 0.00 | 0.00 | 70 | 1016.6 |
| 20260901212433 | 20 | 296 | 11.3 | 24.1 | 0.00 | 0.00 | 0.00 | 71 | 1016.6 |
| 20260901211918 | 19 | 237 | 9.7 | 24.1 | 0.00 | 0.00 | 0.00 | 72 | 1016.5 |
| 20260901211442 | 19 | 226 | 8.0 | 19.3 | 0.00 | 0.00 | 0.00 | 71 | 1016.6 |
| 20260901210925 | 19 | 235 | 8.0 | 19.3 | 0.00 | 0.00 | 0.00 | 71 | 1016.6 |
| 20260901210425 | 19 | 271 | 9.7 | 22.5 | 0.00 | 0.00 | 0.00 | 70 | 1016.5 |
| 20260901205930 | 19 | 322 | 11.3 | 22.5 | 0.00 | 0.00 | 0.00 | 71 | 1016.4 |
| 20260901205435 | 19 | 271 | 11.3 | 22.5 | 0.00 | 0.00 | 0.00 | 71 | 1016.4 |
| 20260901204948 | 19 | 275 | 11.3 | 20.9 | 0.00 | 0.00 | 0.00 | 70 | 1016.5 |
| 20260901204434 | 19 | 281 | 9.7 | 22.5 | 0.00 | 0.00 | 0.00 | 70 | 1016.5 |
| 20260901203918 | 19 | 252 | 12.9 | 22.5 | 0.00 | 0.00 | 0.00 | 70 | 1016.6 |
| 20260901203423 | 18 | 247 | 9.7 | 19.3 | 0.00 | 0.00 | 0.00 | 71 | 1016.5 |
| 20260901202921 | 18 | 261 | 11.3 | 19.3 | 0.00 | 0.00 | 0.00 | 71 | 1016.5 |
| 20260901202426 | 19 | 239 | 9.7 | 20.9 | 0.00 | 0.00 | 0.00 | 70 | 1016.6 |
| 20260901201931 | 19 | 220 | 9.7 | 22.5 | 0.00 | 0.00 | 0.00 | 71 | 1016.6 |
| 20260901201436 | 19 | 273 | 11.3 | 22.5 | 0.00 | 0.00 | 0.00 | 73 | 1016.6 |
| 20260901200921 | 18 | 273 | 11.3 | 20.9 | 0.00 | 0.00 | 0.00 | 72 | 1016.6 |
| 20260901200428 | 19 | 230 | 12.9 | 22.5 | 0.00 | 0.00 | 0.00 | 72 | 1016.6 |
| 20260901195929 | 18 | 234 | 9.7 | 24.1 | 0.00 | 0.00 | 0.00 | 71 | 1016.6 |
| 20260901195432 | 18 | 196 | 11.3 | 24.1 | 0.00 | 0.00 | 0.00 | 70 | 1016.6 |
| 20260901194935 | 18 | 207 | 11.3 | 25.7 | 0.00 | 0.00 | 0.00 | 70 | 1016.6 |
| 20260901194420 | 18 | 212 | 12.9 | 24.1 | 0.00 | 0.00 | 0.00 | 71 | 1016.7 |
| 20260901193952 | 18 | 209 | 11.3 | 24.1 | 0.00 | 0.00 | 0.00 | 72 | 1016.7 |
| 20260901193438 | 18 | 233 | 14.5 | 24.1 | 0.00 | 0.00 | 0.00 | 72 | 1016.6 |
| 20260901192919 | 18 | 238 | 11.3 | 22.5 | 0.00 | 0.00 | 0.00 | 73 | 1016.8 |
| 20260901192422 | 18 | 282 | 9.7 | 22.5 | 0.00 | 0.00 | 0.00 | 72 | 1016.8 |
| 20260901191921 | 18 | 222 | 8.0 | 22.5 | 0.00 | 0.00 | 0.00 | 73 | 1016.9 |
| 20260901191427 | 18 | 238 | 11.3 | 22.5 | 0.00 | 0.00 | 0.00 | 73 | 1016.8 |
| 20260901190932 | 18 | 211 | 9.7 | 22.5 | 0.00 | 0.00 | 0.00 | 74 | 1016.9 |
| 20260901190427 | 18 | 222 | 16.1 | 22.5 | 0.00 | 0.00 | 0.00 | 73 | 1016.7 |
| 20260901185922 | 18 | 259 | 9.7 | 22.5 | 0.00 | 0.00 | 0.00 | 73 | 1016.8 |
| 20260901185426 | 18 | 230 | 11.3 | 22.5 | 0.00 | 0.00 | 0.00 | 74 | 1016.9 |
| 20260901184932 | 18 | 222 | 12.9 | 25.7 | 0.00 | 0.00 | 0.00 | 74 | 1016.8 |
| 20260901184433 | 18 | 189 | 11.3 | 17.7 | 0.00 | 0.00 | 0.00 | 74 | 1016.8 |
| 20260901183928 | 18 | 264 | 8.0 | 19.3 | 0.00 | 0.00 | 0.00 | 74 | 1016.8 |
| 20260901183430 | 18 | 221 | 11.3 | 19.3 | 0.00 | 0.00 | 0.00 | 74 | 1016.8 |
| 20260901182934 | 18 | 299 | 6.4 | 16.1 | 0.00 | 0.00 | 0.00 | 74 | 1016.8 |
| 20260901182419 | 18 | 257 | 8.0 | 16.1 | 0.00 | 0.00 | 0.00 | 74 | 1016.8 |
| 20260901181924 | 18 | 249 | 6.4 | 16.1 | 0.00 | 0.00 | 0.00 | 75 | 1016.8 |
| 20260901181428 | 18 | 222 | 11.3 | 16.1 | 0.00 | 0.00 | 0.00 | 74 | 1016.7 |
| 20260901180929 | 18 | 207 | 8.0 | 16.1 | 0.00 | 0.00 | 0.00 | 73 | 1016.8 |
| 20260901180435 | 18 | 213 | 8.0 | 16.1 | 0.00 | 0.00 | 0.00 | 74 | 1016.7 |
| 20260901175947 | 18 | 227 | 9.7 | 16.1 | 0.00 | 0.00 | 0.00 | 75 | 1016.7 |
| 20260901175430 | 18 | 214 | 3.2 | 16.1 | 0.00 | 0.00 | 0.00 | 77 | 1016.8 |
| 20260901174931 | 17 | 183 | 6.4 | 16.1 | 0.00 | 0.00 | 0.00 | 77 | 1016.7 |
| 20260901174435 | 17 | 231 | 8.0 | 19.3 | 0.00 | 0.00 | 0.00 | 76 | 1016.7 |
| 20260901173937 | 18 | 203 | 8.0 | 14.5 | 0.00 | 0.00 | 0.00 | 77 | 1016.6 |
| 20260901173447 | 17 | 183 | 8.0 | 17.7 | 0.00 | 0.00 | 0.00 | 77 | 1016.5 |
| 20260901172929 | 17 | 212 | 9.7 | 17.7 | 0.00 | 0.00 | 0.00 | 77 | 1016.5 |
| 20260901172433 | 17 | 196 | 6.4 | 17.7 | 0.00 | 0.00 | 0.00 | 77 | 1016.5 |
| 20260901171938 | 17 | 215 | 8.0 | 16.1 | 0.00 | 0.00 | 0.00 | 78 | 1016.5 |
| 20260901171438 | 17 | 244 | 4.8 | 19.3 | 0.00 | 0.00 | 0.00 | 78 | 1016.4 |
| 20260901170918 | 17 | 222 | 8.0 | 12.9 | 0.00 | 0.00 | 0.00 | 78 | 1016.4 |
| 20260901170433 | 17 | 194 | 6.4 | 17.7 | 0.00 | 0.00 | 0.00 | 78 | 1016.4 |
| 20260901165935 | 17 | 196 | 9.7 | 17.7 | 0.00 | 0.00 | 0.00 | 78 | 1016.4 |
| 20260901165437 | 17 | 254 | 6.4 | 17.7 | 0.00 | 0.00 | 0.00 | 78 | 1016.3 |
| 20260901164919 | 17 | 284 | 9.7 | 14.5 | 0.00 | 0.00 | 0.00 | 79 | 1016.2 |
| 20260901164423 | 17 | 268 | 4.8 | 17.7 | 0.00 | 0.00 | 0.00 | 79 | 1016.2 |
| 20260901163925 | 17 | 286 | 9.7 | 17.7 | 0.00 | 0.00 | 0.00 | 79 | 1016.2 |
| 20260901163427 | 17 | 360 | 8.0 | 14.5 | 0.00 | 0.00 | 0.00 | 80 | 1016.2 |
| 20260901162926 | 17 | 283 | 6.4 | 12.9 | 0.00 | 0.00 | 0.00 | 80 | 1016.1 |
| 20260901162430 | 17 | 214 | 9.7 | 12.9 | 0.00 | 0.00 | 0.00 | 81 | 1016.1 |
| 20260901161935 | 17 | 225 | 6.4 | 16.1 | 0.00 | 0.00 | 0.00 | 81 | 1016.1 |
| 20260901161437 | 17 | 256 | 11.3 | 16.1 | 0.00 | 0.00 | 0.00 | 81 | 1016.1 |
| 20260901160951 | 16 | 273 | 8.0 | 17.7 | 0.00 | 0.00 | 0.00 | 82 | 1016.1 |
| 20260901160434 | 16 | 280 | 9.7 | 19.3 | 0.00 | 0.00 | 0.00 | 82 | 1016.1 |
| 20260901155917 | 16 | 188 | 11.3 | 19.3 | 0.00 | 0.00 | 0.00 | 82 | 1016.2 |
| 20260901155418 | 16 | 244 | 6.4 | 12.9 | 0.00 | 0.00 | 0.00 | 82 | 1016.1 |
| 20260901154921 | 16 | 268 | 6.4 | 12.9 | 0.00 | 0.00 | 0.00 | 82 | 1016.1 |
| 20260901154456 | 16 | 271 | 4.8 | 16.1 | 0.00 | 0.00 | 0.00 | 83 | 1016.0 |
| 20260901153918 | 16 | 235 | 6.4 | 16.1 | 0.00 | 0.00 | 0.00 | 83 | 1015.9 |
| 20260901153442 | 16 | 313 | 8.0 | 17.7 | 0.00 | 0.00 | 0.00 | 83 | 1015.8 |
| 20260901152955 | 16 | 217 | 9.7 | 29.0 | 0.00 | 0.00 | 0.00 | 83 | 1015.8 |
| 20260901152435 | 16 | 220 | 9.7 | 19.3 | 0.00 | 0.00 | 0.00 | 83 | 1015.6 |
| 20260901151938 | 16 | 212 | 4.8 | 16.1 | 0.00 | 0.00 | 0.00 | 84 | 1015.6 |
| 20260901151453 | 16 | 263 | 8.0 | 16.1 | 0.00 | 0.00 | 0.00 | 84 | 1015.6 |
| 20260901150919 | 16 | 196 | 6.4 | 19.3 | 0.00 | 0.00 | 0.00 | 84 | 1015.4 |
| 20260901150421 | 16 | 218 | 4.8 | 19.3 | 0.00 | 0.00 | 0.00 | 84 | 1015.5 |
| 20260901145924 | 16 | 188 | 8.0 | 16.1 | 0.00 | 0.00 | 0.00 | 84 | 1015.4 |
| 20260901145429 | 16 | 208 | 8.0 | 16.1 | 0.00 | 0.00 | 0.00 | 84 | 1015.3 |
| 20260901144926 | 16 | 217 | 6.4 | 16.1 | 0.00 | 0.00 | 0.00 | 84 | 1015.2 |
| 20260901144431 | 16 | 292 | 6.4 | 16.1 | 0.00 | 0.00 | 0.00 | 84 | 1015.1 |
| 20260901143934 | 16 | 230 | 4.8 | 17.7 | 0.00 | 0.00 | 0.00 | 84 | 1015.2 |
| 20260901143445 | 16 | 247 | 9.7 | 17.7 | 0.00 | 0.00 | 0.00 | 84 | 1015.0 |
| 20260901142946 | 16 | 268 | 6.4 | 20.9 | 0.00 | 0.00 | 0.00 | 84 | 1015.0 |
| 20260901142424 | 16 | 237 | 8.0 | 14.5 | 0.00 | 0.00 | 0.00 | 84 | 1014.9 |
| 20260901141918 | 16 | 203 | 4.8 | 14.5 | 0.00 | 0.00 | 0.00 | 85 | 1014.9 |
| 20260901141422 | 16 | 256 | 6.4 | 14.5 | 0.00 | 0.00 | 0.00 | 85 | 1014.7 |
| 20260901140925 | 16 | 211 | 6.4 | 14.5 | 0.00 | 0.00 | 0.00 | 84 | 1014.6 |
| 20260901140428 | 16 | 213 | 8.0 | 17.7 | 0.00 | 0.00 | 0.00 | 85 | 1014.6 |
| 20260901135932 | 16 | 198 | 9.7 | 17.7 | 0.00 | 0.00 | 0.00 | 85 | 1014.6 |
| 20260901135437 | 16 | 258 | 8.0 | 17.7 | 0.00 | 0.00 | 0.00 | 85 | 1014.5 |
| 20260901134922 | 16 | 261 | 6.4 | 14.5 | 0.00 | 0.00 | 0.00 | 85 | 1014.4 |
| 20260901134422 | 16 | 251 | 8.0 | 12.9 | 0.00 | 0.00 | 0.00 | 85 | 1014.4 |
| 20260901133957 | 16 | 222 | 6.4 | 16.1 | 0.00 | 0.00 | 0.00 | 85 | 1014.4 |
| 20260901133439 | 16 | 222 | 4.8 | 16.1 | 0.00 | 0.00 | 0.00 | 85 | 1014.3 |
| 20260901132920 | 16 | 244 | 6.4 | 12.9 | 0.00 | 0.00 | 0.00 | 84 | 1014.3 |
| 20260901132445 | 16 | 261 | 4.8 | 11.3 | 0.00 | 0.00 | 0.00 | 84 | 1014.2 |
| 20260901131921 | 16 | 284 | 4.8 | 17.7 | 0.00 | 0.00 | 0.00 | 84 | 1014.1 |
| 20260901131420 | 16 | 242 | 6.4 | 17.7 | 0.00 | 0.00 | 0.00 | 84 | 1014.2 |
| 20260901130924 | 16 | 277 | 6.4 | 17.7 | 0.00 | 0.00 | 0.00 | 84 | 1014.1 |
| 20260901130431 | 16 | 213 | 9.7 | 14.5 | 0.00 | 0.00 | 0.00 | 84 | 1014.0 |
| 20260901125933 | 16 | 45 | 4.8 | 12.9 | 0.00 | 0.00 | 0.00 | 84 | 1014.1 |
| 20260901125420 | 16 | 239 | 6.4 | 12.9 | 0.00 | 0.00 | 0.00 | 84 | 1014.0 |
| 20260901124922 | 16 | 208 | 3.2 | 16.1 | 0.00 | 0.00 | 0.00 | 83 | 1013.9 |
| 20260901124428 | 16 | 230 | 8.0 | 16.1 | 0.00 | 0.00 | 0.00 | 83 | 1014.0 |
| 20260901123929 | 16 | 207 | 4.8 | 12.9 | 0.00 | 0.00 | 0.00 | 83 | 1014.0 |
| 20260901123433 | 16 | 215 | 6.4 | 12.9 | 0.00 | 0.00 | 0.00 | 83 | 1014.0 |
| 20260901122935 | 16 | 215 | 6.4 | 17.7 | 0.00 | 0.00 | 0.00 | 83 | 1014.0 |
| 20260901122420 | 16 | 226 | 6.4 | 17.7 | 0.00 | 0.00 | 0.00 | 83 | 1014.0 |
| 20260901121926 | 16 | 219 | 8.0 | 17.7 | 0.00 | 0.00 | 0.00 | 83 | 1013.9 |
| 20260901121433 | 16 | 228 | 6.4 | 16.1 | 0.00 | 0.00 | 0.00 | 83 | 1013.8 |
| 20260901120919 | 16 | 206 | 8.0 | 14.5 | 0.00 | 0.00 | 0.00 | 82 | 1013.7 |
| 20260901120424 | 16 | 261 | 4.8 | 16.1 | 0.00 | 0.00 | 0.00 | 82 | 1013.7 |
| 20260901115946 | 16 | 171 | 6.4 | 12.9 | 0.00 | 0.00 | 0.00 | 82 | 1013.8 |
| 20260901115431 | 16 | 203 | 4.8 | 12.9 | 0.00 | 0.00 | 0.00 | 82 | 1013.9 |
| 20260901114934 | 16 | 218 | 6.4 | 14.5 | 0.00 | 0.00 | 0.00 | 82 | 1013.9 |
| 20260901114420 | 16 | 268 | 6.4 | 14.5 | 0.00 | 0.00 | 0.00 | 82 | 1013.9 |
| 20260901113924 | 16 | 292 | 8.0 | 11.3 | 0.00 | 0.00 | 0.00 | 82 | 1013.8 |
| 20260901113426 | 16 | 227 | 4.8 | 9.7 | 0.00 | 0.00 | 0.00 | 82 | 1013.8 |
| 20260901112926 | 16 | 268 | 6.4 | 14.5 | 0.00 | 0.00 | 0.00 | 82 | 1013.9 |
| 20260901112432 | 16 | 242 | 8.0 | 14.5 | 0.00 | 0.00 | 0.00 | 82 | 1014.0 |
| 20260901111935 | 16 | 247 | 6.4 | 17.7 | 0.00 | 0.00 | 0.00 | 82 | 1014.0 |
| 20260901111420 | 16 | 163 | 12.9 | 17.7 | 0.00 | 0.00 | 0.00 | 82 | 1014.0 |
| 20260901110945 | 16 | 222 | 4.8 | 14.5 | 0.00 | 0.00 | 0.00 | 82 | 1014.0 |
| 20260901110427 | 16 | 249 | 9.7 | 16.1 | 0.00 | 0.00 | 0.00 | 81 | 1014.0 |
| 20260901105955 | 16 | 222 | 9.7 | 16.1 | 0.00 | 0.00 | 0.00 | 81 | 1014.0 |
| 20260901105419 | 16 | 276 | 8.0 | 16.1 | 0.00 | 0.00 | 0.00 | 81 | 1014.0 |
| 20260901104923 | 16 | 301 | 4.8 | 16.1 | 0.00 | 0.00 | 0.00 | 81 | 1014.0 |
| 20260901104455 | 16 | 216 | 6.4 | 16.1 | 0.00 | 0.00 | 0.00 | 81 | 1014.0 |
| 20260901103920 | 16 | 285 | 8.0 | 17.7 | 0.00 | 0.00 | 0.00 | 81 | 1014.0 |
| 20260901103425 | 16 | 215 | 8.0 | 17.7 | 0.00 | 0.00 | 0.00 | 81 | 1013.9 |
| 20260901102959 | 16 | 219 | 4.8 | 16.1 | 0.00 | 0.00 | 0.00 | 81 | 1014.0 |
| 20260901102438 | 16 | 213 | 8.0 | 19.3 | 0.00 | 0.00 | 0.00 | 81 | 1013.9 |
| 20260901101922 | 16 | 207 | 8.0 | 19.3 | 0.00 | 0.00 | 0.00 | 81 | 1013.9 |
| 20260901101458 | 16 | 187 | 8.0 | 16.1 | 0.00 | 0.00 | 0.00 | 81 | 1013.8 |
| 20260901100942 | 16 | 182 | 8.0 | 17.7 | 0.00 | 0.00 | 0.00 | 81 | 1013.8 |
| 20260901100506 | 16 | 205 | 9.7 | 19.3 | 0.00 | 0.00 | 0.00 | 81 | 1013.8 |
| 20260901095957 | 16 | 217 | 9.7 | 19.3 | 0.00 | 0.00 | 0.00 | 81 | 1013.8 |
| 20260901095437 | 16 | 228 | 9.7 | 16.1 | 0.00 | 0.00 | 0.00 | 81 | 1013.8 |
| 20260901094940 | 16 | 203 | 8.0 | 17.7 | 0.00 | 0.00 | 0.00 | 81 | 1013.8 |
| 20260901094423 | 16 | 203 | 6.4 | 16.1 | 0.00 | 0.00 | 0.00 | 80 | 1013.8 |
| 20260901093931 | 16 | 200 | 6.4 | 16.1 | 0.00 | 0.00 | 0.00 | 80 | 1013.8 |
| 20260901093436 | 16 | 220 | 6.4 | 16.1 | 0.00 | 0.00 | 0.00 | 80 | 1013.8 |
| 20260901092938 | 16 | 230 | 9.7 | 16.1 | 0.00 | 0.00 | 0.00 | 80 | 1013.8 |
| 20260901092430 | 16 | 212 | 4.8 | 14.5 | 0.00 | 0.00 | 0.00 | 80 | 1013.8 |
| 20260901091935 | 16 | 198 | 6.4 | 14.5 | 0.00 | 0.00 | 0.00 | 80 | 1013.8 |
| 20260901091422 | 16 | 238 | 6.4 | 16.1 | 0.00 | 0.00 | 0.00 | 79 | 1013.8 |
| 20260901090955 | 16 | 224 | 8.0 | 14.5 | 0.00 | 0.00 | 0.00 | 79 | 1013.8 |
| 20260901090437 | 16 | 225 | 9.7 | 16.1 | 0.00 | 0.00 | 0.00 | 79 | 1013.9 |
| 20260901085921 | 16 | 239 | 6.4 | 16.1 | 0.00 | 0.00 | 0.00 | 79 | 1013.8 |
| 20260901085448 | 16 | 219 | 8.0 | 17.7 | 0.00 | 0.00 | 0.00 | 79 | 1013.9 |
| 20260901084930 | 16 | 222 | 9.7 | 19.3 | 0.00 | 0.00 | 0.00 | 79 | 1013.8 |
| 20260901084434 | 16 | 207 | 11.3 | 19.3 | 0.00 | 0.00 | 0.00 | 79 | 1013.8 |
| 20260901083949 | 16 | 207 | 9.7 | 19.3 | 0.00 | 0.00 | 0.00 | 79 | 1013.7 |
| 20260901083430 | 16 | 221 | 11.3 | 19.3 | 0.00 | 0.00 | 0.00 | 79 | 1013.7 |
| 20260901082935 | 16 | 195 | 6.4 | 14.5 | 0.00 | 0.00 | 0.00 | 78 | 1013.9 |
| 20260901082421 | 16 | 199 | 8.0 | 14.5 | 0.00 | 0.00 | 0.00 | 78 | 1013.8 |
| 20260901081926 | 16 | 217 | 6.4 | 17.7 | 0.00 | 0.00 | 0.00 | 78 | 1013.9 |
| 20260901081426 | 16 | 226 | 9.7 | 19.3 | 0.00 | 0.00 | 0.00 | 78 | 1013.8 |
| 20260901080933 | 16 | 210 | 9.7 | 19.3 | 0.00 | 0.00 | 0.00 | 78 | 1013.7 |
| 20260901080418 | 16 | 226 | 8.0 | 17.7 | 0.00 | 0.00 | 0.00 | 78 | 1013.8 |
| 20260901075922 | 16 | 222 | 6.4 | 12.9 | 0.00 | 0.00 | 0.00 | 78 | 1013.8 |
| 20260901075427 | 16 | 249 | 8.0 | 12.9 | 0.00 | 0.00 | 0.00 | 78 | 1013.7 |
| 20260901074928 | 16 | 227 | 6.4 | 14.5 | 0.00 | 0.00 | 0.00 | 78 | 1013.8 |
| 20260901074435 | 16 | 249 | 4.8 | 17.7 | 0.00 | 0.00 | 0.00 | 78 | 1013.9 |
| 20260901073935 | 16 | 171 | 8.0 | 17.7 | 0.00 | 0.00 | 0.00 | 78 | 1013.8 |
| 20260901073439 | 16 | 224 | 6.4 | 14.5 | 0.00 | 0.00 | 0.00 | 79 | 1013.8 |
| 20260901072940 | 16 | 206 | 8.0 | 16.1 | 0.00 | 0.00 | 0.00 | 79 | 1013.8 |
| 20260901072424 | 16 | 218 | 6.4 | 12.9 | 0.00 | 0.00 | 0.00 | 79 | 1013.8 |
| 20260901071928 | 16 | 216 | 8.0 | 16.1 | 0.00 | 0.00 | 0.00 | 79 | 1013.9 |
| 20260901071434 | 16 | 196 | 9.7 | 17.7 | 0.00 | 0.00 | 0.00 | 79 | 1013.7 |
| 20260901070918 | 16 | 185 | 8.0 | 17.7 | 0.00 | 0.00 | 0.00 | 80 | 1013.8 |
| 20260901070507 | 16 | 221 | 8.0 | 12.9 | 0.00 | 0.00 | 0.00 | 80 | 1013.7 |
| 20260901065924 | 16 | 177 | 4.8 | 16.1 | 0.00 | 0.00 | 0.00 | 80 | 1013.8 |
| 20260901065430 | 16 | 268 | 9.7 | 16.1 | 0.00 | 0.00 | 0.00 | 80 | 1013.7 |
| 20260901064933 | 16 | 268 | 8.0 | 14.5 | 0.00 | 0.00 | 0.00 | 79 | 1013.8 |
| 20260901064438 | 16 | 243 | 8.0 | 14.5 | 0.00 | 0.00 | 0.00 | 79 | 1013.8 |
| 20260901063953 | 16 | 263 | 6.4 | 14.5 | 0.00 | 0.00 | 0.00 | 78 | 1013.8 |
| 20260901063429 | 16 | 216 | 8.0 | 16.1 | 0.00 | 0.00 | 0.00 | 78 | 1013.8 |
| 20260901062932 | 16 | 88 | 8.0 | 16.1 | 0.00 | 0.00 | 0.00 | 77 | 1013.9 |
| 20260901062417 | 16 | 252 | 6.4 | 20.9 | 0.00 | 0.00 | 0.00 | 77 | 1013.9 |
| 20260901061944 | 16 | 215 | 11.3 | 20.9 | 0.00 | 0.00 | 0.00 | 77 | 1013.8 |
| 20260901061429 | 16 | 268 | 9.7 | 22.5 | 0.00 | 0.00 | 0.00 | 77 | 1013.9 |
| 20260901060933 | 16 | 259 | 9.7 | 22.5 | 0.00 | 0.00 | 0.00 | 77 | 1013.9 |
| 20260901060431 | 16 | 235 | 8.0 | 14.5 | 0.00 | 0.00 | 0.00 | 77 | 1014.0 |
| 20260901055934 | 16 | 230 | 8.0 | 22.5 | 0.00 | 0.00 | 0.00 | 77 | 1014.0 |
| 20260901055419 | 16 | 294 | 9.7 | 22.5 | 0.00 | 0.00 | 0.00 | 77 | 1014.0 |
| 20260901054945 | 16 | 237 | 11.3 | 20.9 | 0.00 | 0.00 | 0.00 | 77 | 1014.0 |
| 20260901054430 | 16 | 207 | 8.0 | 17.7 | 0.00 | 0.00 | 0.00 | 77 | 1014.0 |
| 20260901053937 | 16 | 238 | 8.0 | 20.9 | 0.00 | 0.00 | 0.00 | 77 | 1014.1 |
| 20260901053419 | 16 | 193 | 8.0 | 20.9 | 0.00 | 0.00 | 0.00 | 77 | 1014.1 |
| 20260901052919 | 16 | 275 | 9.7 | 20.9 | 0.00 | 0.00 | 0.00 | 77 | 1014.1 |
| 20260901052445 | 16 | 270 | 9.7 | 20.9 | 0.00 | 0.00 | 0.00 | 77 | 1014.2 |
| 20260901051956 | 16 | 306 | 8.0 | 19.3 | 0.00 | 0.00 | 0.00 | 77 | 1014.1 |
| 20260901051419 | 16 | 272 | 8.0 | 12.9 | 0.00 | 0.00 | 0.00 | 77 | 1014.2 |
| 20260901050925 | 16 | 292 | 6.4 | 25.7 | 0.00 | 0.00 | 0.00 | 76 | 1014.2 |
| 20260901050432 | 16 | 242 | 8.0 | 25.7 | 0.00 | 0.00 | 0.00 | 76 | 1014.1 |
| 20260901045931 | 16 | 288 | 8.0 | 16.1 | 0.00 | 0.00 | 0.00 | 76 | 1014.1 |
| 20260901045436 | 16 | 280 | 8.0 | 16.1 | 0.00 | 0.00 | 0.00 | 76 | 1014.0 |
| 20260901044921 | 16 | 294 | 6.4 | 16.1 | 0.00 | 0.00 | 0.00 | 76 | 1014.0 |
| 20260901044425 | 16 | 238 | 8.0 | 16.1 | 0.00 | 0.00 | 0.00 | 76 | 1014.0 |
| 20260901043932 | 16 | 313 | 6.4 | 12.9 | 0.00 | 0.00 | 0.00 | 75 | 1014.0 |
| 20260901043434 | 16 | 280 | 6.4 | 12.9 | 0.00 | 0.00 | 0.00 | 75 | 1013.9 |
| 20260901042937 | 16 | 249 | 6.4 | 17.7 | 0.00 | 0.00 | 0.00 | 75 | 1013.9 |
| 20260901042419 | 16 | 222 | 11.3 | 17.7 | 0.00 | 0.00 | 0.00 | 75 | 1014.0 |
| 20260901041918 | 16 | 249 | 6.4 | 22.5 | 0.00 | 0.00 | 0.00 | 75 | 1014.0 |
| 20260901041432 | 16 | 280 | 6.4 | 17.7 | 0.00 | 0.00 | 0.00 | 75 | 1013.9 |
| 20260901040947 | 16 | 228 | 4.8 | 12.9 | 0.00 | 0.00 | 0.00 | 75 | 1013.9 |
| 20260901040430 | 16 | 251 | 4.8 | 16.1 | 0.00 | 0.00 | 0.00 | 75 | 1013.8 |
| 20260901035935 | 16 | 308 | 8.0 | 16.1 | 0.00 | 0.00 | 0.00 | 75 | 1013.8 |
| 20260901035418 | 16 | 276 | 8.0 | 16.1 | 0.00 | 0.00 | 0.00 | 76 | 1013.8 |
| 20260901034936 | 16 | 222 | 9.7 | 27.4 | 0.00 | 0.00 | 0.00 | 76 | 1013.8 |
| 20260901034444 | 16 | 261 | 9.7 | 27.4 | 0.00 | 0.00 | 0.00 | 76 | 1013.7 |
| 20260901033956 | 16 | 228 | 9.7 | 19.3 | 0.00 | 0.00 | 0.00 | 76 | 1013.5 |
| 20260901033418 | 16 | 239 | 8.0 | 20.9 | 0.00 | 0.00 | 0.00 | 76 | 1013.6 |
| 20260901032922 | 16 | 295 | 8.0 | 20.9 | 0.00 | 0.00 | 0.00 | 77 | 1013.5 |
| 20260901032441 | 16 | 282 | 8.0 | 17.7 | 0.00 | 0.00 | 0.00 | 78 | 1013.5 |
| 20260901031920 | 16 | 244 | 8.0 | 19.3 | 0.00 | 0.00 | 0.00 | 78 | 1013.4 |
| 20260901031453 | 16 | 248 | 9.7 | 19.3 | 0.00 | 0.00 | 0.00 | 78 | 1013.4 |
| 20260901030917 | 16 | 282 | 6.4 | 19.3 | 0.00 | 0.00 | 0.00 | 78 | 1013.3 |
| 20260901030418 | 16 | 268 | 9.7 | 19.3 | 0.00 | 0.00 | 0.00 | 78 | 1013.2 |
| 20260901025920 | 16 | 263 | 11.3 | 20.9 | 0.00 | 0.00 | 0.00 | 78 | 1013.2 |
| 20260901025445 | 16 | 247 | 9.7 | 20.9 | 0.00 | 0.00 | 0.00 | 78 | 1013.3 |
| 20260901024925 | 16 | 208 | 12.9 | 20.9 | 0.00 | 0.00 | 0.00 | 76 | 1013.3 |
| 20260901024431 | 16 | 249 | 8.0 | 20.9 | 0.00 | 0.00 | 0.00 | 76 | 1013.3 |
| 20260901023936 | 16 | 252 | 4.8 | 16.1 | 0.00 | 0.00 | 0.00 | 75 | 1013.2 |
| 20260901023420 | 16 | 14 | 6.4 | 19.3 | 0.00 | 0.00 | 0.00 | 75 | 1013.2 |
| 20260901022921 | 16 | 313 | 9.7 | 22.5 | 0.00 | 0.00 | 0.00 | 75 | 1013.3 |
| 20260901022449 | 16 | 273 | 8.0 | 25.7 | 0.00 | 0.00 | 0.00 | 76 | 1013.2 |
| 20260901021956 | 16 | 210 | 12.9 | 25.7 | 0.00 | 0.00 | 0.00 | 75 | 1013.2 |
| 20260901021420 | 16 | 257 | 9.7 | 20.9 | 0.00 | 0.00 | 0.00 | 75 | 1013.3 |
| 20260901020955 | 16 | 282 | 11.3 | 19.3 | 0.00 | 0.00 | 0.00 | 74 | 1013.3 |
| 20260901020505 | 16 | 270 | 8.0 | 20.9 | 0.00 | 0.00 | 0.00 | 74 | 1013.2 |
| 20260901015958 | 16 | 264 | 9.7 | 20.9 | 0.00 | 0.00 | 0.00 | 74 | 1013.2 |
| 20260901015452 | 16 | 271 | 8.0 | 20.9 | 0.00 | 0.00 | 0.00 | 74 | 1013.2 |